Location: Unspecified
(0.0000°N, 0.0000°E)
Time: 13:14:20
(UTC+00:00)

Vanguard 1 - Pass Details

Date: 04 October 2023
Orbit: 652 x 3828 km, 34.3° (Epoch: 05 December)

Event Time Altitude Azimuth Distance (km) Brightness Sun altitude
Rises 04:29:33 0° 211° (SSW) 4,751 13.3 -19.8°
Reaches altitude 10° 04:35:36 10° 184° (S) 3,049 12.6 -18.3°
Maximum altitude 04:38:15 12° 161° (SSE) 2,597 12.5 -17.6°
Drops below altitude 10° 04:40:33 10° 138° (SE) 2,529 12.8 -17.0°
Sets 04:44:24 0° 106° (ESE) 3,149 14.4 -16.1°
